Location: Gazon
(48.1318°N, 1.2708°W)
Time: 02:38:03
(UTC+00:00)

Cosmos 1844 - Pass Details

Date: 18 September 2020
Orbit: 824 x 866 km, 70.9° (Epoch: 29 October)

Event Time Altitude Azimuth Distance (km) Brightness Sun altitude
Rises 21:09:18 0° 219° (SW) 3,412 6.9 -28.3°
Reaches altitude 10° 21:11:49 10° 224° (SW) 2,474 6.1 -28.6°
Maximum altitude 21:17:24 57° 303° (WNW) 994 4.2 -29.3°
Drops below altitude 10° 21:22:57 10° 22° (NNE) 2,461 6.3 -30.0°
Sets 21:25:27 0° 26° (NNE) 3,393 7.1 -30.3°
